| time (UTC) | temp C | wind direction | speed KPH | gust KPH | rain 1hr cm | rain 24hr cm | rain mn cm | humidity % | barometer mb |
| 20260503060106 | 1 | 325 | 0.0 | 0.0 | 0.00 | 0.25 | 0.00 | 91 | 1011.1 |
| 20260503054557 | 1 | 325 | 0.0 | 0.0 | 0.00 | 0.25 | 0.00 | 91 | 1011.2 |
| 20260503053057 | 1 | 325 | 0.0 | 0.0 | 0.00 | 0.25 | 0.00 | 91 | 1011.3 |
| 20260503051558 | 1 | 325 | 0.0 | 0.0 | 0.00 | 0.25 | 0.00 | 90 | 1011.4 |
| 20260503050050 | 1 | 325 | 0.0 | 0.0 | 0.00 | 0.25 | 0.00 | 90 | 1011.5 |
| 20260503044550 | 1 | 325 | 0.0 | 0.0 | 0.00 | 0.25 | 0.00 | 90 | 1011.6 |
| 20260503043051 | 1 | 325 | 0.0 | 0.0 | 0.00 | 0.25 | 0.00 | 89 | 1011.8 |
| 20260503041546 | 1 | 325 | 0.0 | 0.0 | 0.00 | 0.25 | 0.00 | 89 | 1011.8 |
| 20260503040044 | 1 | 325 | 0.0 | 0.0 | 0.00 | 0.25 | 0.25 | 89 | 1012.0 |
| 20260503034543 | 1 | 325 | 0.0 | 0.0 | 0.00 | 0.25 | 0.25 | 88 | 1012.0 |
| 20260503033046 | 1 | 325 | 0.0 | 1.6 | 0.00 | 0.25 | 0.25 | 87 | 1012.0 |
| 20260503031539 | 1 | 325 | 0.0 | 0.0 | 0.00 | 0.25 | 0.25 | 87 | 1012.0 |
| 20260503030037 | 2 | 325 | 0.0 | 0.0 | 0.00 | 0.25 | 0.25 | 87 | 1012.0 |
| 20260503024537 | 2 | 325 | 0.0 | 0.0 | 0.00 | 0.25 | 0.25 | 86 | 1012.0 |
| 20260503023033 | 2 | 325 | 0.0 | 0.0 | 0.00 | 0.25 | 0.25 | 86 | 1012.2 |
| 20260503021530 | 3 | 325 | 0.0 | 0.0 | 0.00 | 0.25 | 0.25 | 86 | 1012.2 |
| 20260503020027 | 3 | 325 | 0.0 | 0.0 | 0.00 | 0.25 | 0.25 | 85 | 1012.3 |
| 20260503014538 | 4 | 325 | 0.0 | 0.0 | 0.00 | 0.25 | 0.25 | 86 | 1012.4 |
| 20260503013023 | 4 | 325 | 0.0 | 0.0 | 0.00 | 0.25 | 0.25 | 86 | 1012.4 |
| 20260503011522 | 5 | 325 | 0.0 | 3.2 | 0.00 | 0.25 | 0.25 | 86 | 1012.5 |
| 20260503010021 | 5 | 261 | 0.0 | 0.0 | 0.00 | 0.25 | 0.25 | 85 | 1012.3 |
| 20260503004525 | 5 | 261 | 0.0 | 0.0 | 0.00 | 0.25 | 0.25 | 85 | 1012.2 |
| 20260503003016 | 5 | 261 | 0.0 | 0.0 | 0.00 | 0.25 | 0.25 | 85 | 1012.0 |
| 20260503001513 | 5 | 261 | 1.6 | 3.2 | 0.00 | 0.25 | 0.25 | 85 | 1012.0 |
| 20260503000011 | 6 | 310 | 0.0 | 6.4 | 0.00 | 0.25 | 0.25 | 85 | 1011.8 |
| 20260502234511 | 6 | 277 | 3.2 | 6.4 | 0.00 | 0.25 | 0.25 | 85 | 1011.7 |
| 20260502233012 | 6 | 244 | 0.0 | 9.7 | 0.00 | 0.25 | 0.25 | 85 | 1011.6 |
| 20260502231510 | 6 | 256 | 4.8 | 12.9 | 0.00 | 0.25 | 0.25 | 84 | 1011.6 |
| 20260502230012 | 7 | 262 | 4.8 | 14.5 | 0.00 | 0.25 | 0.25 | 83 | 1011.4 |
| 20260502224508 | 7 | 264 | 3.2 | 16.1 | 0.00 | 0.25 | 0.25 | 81 | 1011.2 |
| 20260502223007 | 7 | 225 | 0.0 | 3.2 | 0.00 | 0.25 | 0.25 | 78 | 1010.8 |
| 20260502221507 | 8 | 251 | 1.6 | 14.5 | 0.00 | 0.25 | 0.25 | 74 | 1010.5 |
| 20260502220007 | 8 | 5 | 3.2 | 17.7 | 0.00 | 0.25 | 0.25 | 73 | 1010.3 |
| 20260502214511 | 9 | 267 | 3.2 | 19.3 | 0.00 | 0.25 | 0.25 | 71 | 1010.2 |
| 20260502213006 | 10 | 254 | 3.2 | 16.1 | 0.00 | 0.25 | 0.25 | 66 | 1010.1 |
| 20260502211510 | 11 | 281 | 0.0 | 9.7 | 0.00 | 0.25 | 0.25 | 64 | 1010.0 |
| 20260502210013 | 11 | 188 | 1.6 | 8.0 | 0.00 | 0.25 | 0.25 | 59 | 1009.9 |
| 20260502204504 | 11 | 194 | 3.2 | 14.5 | 0.00 | 0.25 | 0.25 | 60 | 1009.8 |
| 20260502203002 | 11 | 174 | 0.0 | 8.0 | 0.00 | 0.25 | 0.25 | 63 | 1010.0 |
| 20260502201606 | 11 | 161 | 1.6 | 9.7 | 0.00 | 0.25 | 0.25 | 67 | 1010.1 |
| 20260502200058 | 11 | 131 | 1.6 | 9.7 | 0.00 | 0.25 | 0.25 | 68 | 1010.2 |
| 20260502194606 | 11 | 344 | 1.6 | 6.4 | 0.00 | 0.25 | 0.25 | 73 | 1010.4 |
| 20260502193053 | 10 | 313 | 4.8 | 9.7 | 0.00 | 0.25 | 0.25 | 73 | 1010.7 |
| 20260502191552 | 10 | 113 | 1.6 | 6.4 | 0.00 | 0.25 | 0.25 | 77 | 1010.7 |
| 20260502190048 | 8 | 80 | 1.6 | 6.4 | 0.03 | 0.25 | 0.25 | 80 | 1010.9 |
| 20260502184553 | 8 | 82 | 1.6 | 9.7 | 0.03 | 0.25 | 0.25 | 81 | 1011.1 |
| 20260502183056 | 7 | 76 | 1.6 | 8.0 | 0.03 | 0.25 | 0.25 | 83 | 1011.3 |
| 20260502181545 | 7 | 173 | 0.0 | 6.4 | 0.03 | 0.25 | 0.25 | 85 | 1011.5 |
| 20260502163043 | 7 | 271 | 1.6 | 11.3 | 0.00 | 0.23 | 0.23 | 85 | 1011.3 |
| 20260502161540 | 7 | 336 | 4.8 | 12.9 | 0.00 | 0.23 | 0.23 | 86 | 1011.3 |
| 20260502151538 | 7 | 330 | 0.0 | 12.9 | 0.00 | 0.23 | 0.23 | 89 | 1011.5 |
| 20260502123020 | 6 | 78 | 0.0 | 1.6 | 0.00 | 0.23 | 0.23 | 92 | 1011.5 |
| 20260502121517 | 6 | 78 | 0.0 | 0.0 | 0.03 | 0.23 | 0.23 | 92 | 1011.5 |
| 20260502114516 | 6 | 78 | 0.0 | 1.6 | 0.03 | 0.23 | 0.23 | 92 | 1011.3 |
| 20260502113016 | 6 | 79 | 0.0 | 1.6 | 0.05 | 0.23 | 0.23 | 92 | 1011.2 |
| 20260502111515 | 6 | 79 | 0.0 | 0.0 | 0.03 | 0.20 | 0.20 | 92 | 1011.3 |
| 20260502110014 | 5 | 79 | 0.0 | 0.0 | 0.03 | 0.20 | 0.20 | 92 | 1011.2 |
| 20260502104520 | 5 | 78 | 0.0 | 0.0 | 0.05 | 0.20 | 0.20 | 91 | 1011.2 |
| 20260502103015 | 5 | 78 | 0.0 | 0.0 | 0.08 | 0.18 | 0.18 | 91 | 1011.0 |
| 20260502101530 | 5 | 78 | 0.0 | 0.0 | 0.08 | 0.18 | 0.18 | 91 | 1010.9 |
| 20260502091510 | 5 | 78 | 0.0 | 0.0 | 0.00 | 0.10 | 0.10 | 91 | 1011.1 |
| 20260502071501 | 6 | 78 | 1.6 | 4.8 | 0.03 | 0.03 | 0.03 | 89 | 1011.0 |
| 20260502070130 | 6 | 81 | 3.2 | 9.7 | 0.00 | 0.00 | 0.00 | 88 | 1011.4 |